Regional Weather Roundup
Issued by NWS Newport/Morehead, NC

Current Version | Previous Version | Text Only | Print | Product List | Glossary Off
Versions: 1 2 3 4 5 6 7 8 9 10 11 12 13 14 15 16 17 18 19 20 21 22 23 24 25 26 27 28 29 30 31 32 33 34 35 36 37 38 39 40 41 42 43 44 45 46 47 48 49 50
000 ASUS42 KMHX 080924 RWRMHX WEATHER ROUNDUP FOR EASTERN NORTH CAROLINA NATIONAL WEATHER SERVICE NEWPORT/MOREHEAD CITY NC 400 AM EST THU DEC 08 2016 NOTE: "FAIR" INDICATES FEW OR NO CLOUDS BELOW 12,000 FEET WITH NO SIGNIFICANT WEATHER AND/OR OBSTRUCTIONS TO VISIBILITY NCZ015>017-031-032-045>047-102-103-081000- NORTH COAST CITY SKY/WX TMP DP RH WIND PRES REMARKS EDENTON CLOUDY 43 42 94 CALM 30.05F ELIZABETH CITY CLOUDY 42 41 96 CALM 30.05F KITTY HAWK SUNNY 45 45 100 CALM 30.04F MANTEO PTCLDY 39 39 100 CALM 30.05F FOG $$ NCZ045>047-081-094-103-104-081000- CENTRAL COAST CITY SKY/WX TMP DP RH WIND PRES REMARKS FRISCO NOT AVBL $$ NCZ095-097-098-100-101-081000- SOUTHERN COAST CITY SKY/WX TMP DP RH WIND PRES REMARKS BEAUFORT CLOUDY 50 48 93 NE6 30.05F CEDAR ISLAND NOT AVBL JACKSONVILLE MOCLDY 49 46 90 CALM 30.04F PINEY ISLAND CLOUDY N/A N/A N/A E5 30.05F WILMINGTON CLOUDY 47 47 100 CALM 30.05F $$ NCZ011>013-027>030-043-044-078>080-089-090>093-098-081000- COASTAL PLAIN CITY SKY/WX TMP DP RH WIND PRES REMARKS AHOSKIE CLOUDY 44 43 96 CALM 30.04F CLINTON CLOUDY 51 50 96 CALM 30.03F ELIZABETHTOWN PTCLDY 47 47 100 S3 30.04S GOLDSBORO CLOUDY 49 49 97 SE3 30.01F GREENVILLE CLOUDY 46 46 100 SE3 30.06S HAVELOCK CLOUDY 49 46 90 CALM 30.07F KENANSVILLE NOT AVBL KINSTON CLOUDY 49 47 91 SE5 30.04F NEW BERN CLOUDY 49 47 93 S3 30.06F RICHLANDS CLOUDY 49 45 86 SE3 30.04F ROCKY MOUNT CLOUDY 47 46 97 CALM 30.03F WASHINGTON CLOUDY 47 45 95 SE3 30.06S WHITEVILLE CLOUDY 45 44 97 CALM 30.04F FOG $$ AMZ130-135-150-152-154-156-158-170-250-252-270-ANZ085-086-088-633-658-670-081000- MARINE OBSERVATIONS STATION/POSITION TIME TEMP WIND PRES WAVE SWELL AIR SEA DIR/SP/G HT/PER HT/PER (UTC) (F) (DEG/KT/KT) (MB) (FT/S) (FT/S) CHESAPEAKE LIGHT NOT AVBL 64 E VA BEACH 0850 51 58 310/ 8/ 12 1017.0 5/11 5/11 DUCK 0900 48 54 280/ 2/ 2 1017.0 2 E DUCK NOT AVBL OREGON INLET 0900 47 56 350/ 3/ 4 1017.2 13E OREGON INLT NOT AVBL HATTERAS CG 0900 50 60 CALM / 1 1017.4 DIAMOND BUOY 0850 55 78 320/ 6/ 10 1018.0 5/11 5/11 CAPE LOOKOUT 0900 56 50/ 4/ 4 1017.0 BEAUFORT LAB 0900 51 55 30/ 4/ 6 1016.5 30 SE NEW RVR IN 0808 58 71 40/ 2/ 6 1017.8 30 SE NEW RVR IN NOT AVBL 27 SE WRIGHTSVLE 0808 60 69 320/ 6/ 10 1017.4 5 SE WRIGHTSVLE 0808 56 62 120/ 2/ 4 1017.5 225 S CAPE HAT 0850 71 73 290/ 10/ 12 1017.3 6/ 7 5/ 7 41 SE CHARLESTON 0850 63 74 290/ 2/ 6 1017.7 2/ 7 2/ 7 $$

USA.gov is the U.S. government's official web portal to all federal, state and local government web resources and services.